Voltar ao catálogo

ATLAS 5 CENTAUR R/B

AtivoHEO
NORAD 39207·ROCKET BODY·🇺🇸 United States

Lançado Jul 19, 2013 de Cape Canaveral Space Force Station

Loading…

Próximas Passagens (próximas 24 horas)

TLE

AtualizadoSource: Space-Track

Época: Sep 14, 2026, 04:58 UTC

1 39207U 13036B   26257.20756764 -.00000107  00000-0  00000-0 0  9992
2 39207  17.7571 139.4553 6102511  38.7171 352.1984  2.09943620100912

Acompanhe ATLAS 5 CENTAUR R/B em tempo real com AllMySat

Download on the App Store